H1 CPF 2 NER 2024 1 1 9 001 01 glonass133 H2 1403201 9133 40001 2024 1 1 0 0 0 2024 1 4 23 45 0 900 1 1 0 0 0 1 H9 10 0 60310 0.00000 0 8759429.086 -5980930.191 23205965.029 10 0 60310 900.00000 0 10102375.419 -3451937.139 23172135.104 10 0 60310 1800.00000 0 11615986.165 -1058456.913 22688582.163 10 0 60310 2700.00000 0 13255829.202 1143786.766 21764584.338 10 0 60310 3600.00000 0 14968827.026 3108351.180 20417968.153 10 0 60310 4500.00000 0 16695390.476 4799774.982 18674772.737 10 0 60310 5400.00000 0 18371846.269 6194814.887 16568754.471 10 0 60310 6300.00000 0 19933057.635 7283167.486 14140740.622 10 0 60310 7200.00000 0 21315128.697 8067646.274 11437843.579 10 0 60310 8100.00000 0 22458079.199 8563806.822 8512550.125 10 0 60310 9000.00000 0 23308376.914 8799036.172 5421702.970 10 0 60310 9900.00000 0 23821220.529 8811145.272 2225394.219 10 0 60310 10800.00000 0 23962475.950 8646524.449 -1014207.482 10 0 60310 11700.00000 0 23710183.412 8357940.658 -4234072.731 10 0 60310 12600.00000 0 23055570.781 8002070.644 -7371545.572 10 0 60310 13500.00000 0 22003529.364 7636875.596 -10365571.096 10 0 60310 14400.00000 0 20572531.403 7318929.615 -13157891.546 10 0 60310 15300.00000 0 18793992.183 7100816.363 -15694186.660 10 0 60310 16200.00000 0 16711103.302 7028705.140 -17925135.354 10 0 60310 17100.00000 0 14377185.988 7140209.924 -19807377.637 10 0 60310 18000.00000 0 11853633.622 7462622.564 -21304357.856 10 0 60310 18900.00000 0 9207529.708 8011595.278 -22387033.051 10 0 60310 19800.00000 0 6509040.921 8790328.358 -23034433.045 10 0 60310 20700.00000 0 3828694.013 9789297.464 -23234061.954 10 0 60310 21600.00000 0 1234649.826 10986532.066 -22982134.013 10 0 60310 22500.00000 0 -1209912.626 12348433.393 -22283639.782 10 0 60310 23400.00000 0 -3449193.871 13831097.517 -21152242.097 10 0 60310 24300.00000 0 -5436854.834 15382088.159 -19610004.216 10 0 60310 25200.00000 0 -7137695.564 16942584.913 -17686955.808 10 0 60310 26100.00000 0 -8528863.408 18449816.977 -15420505.385 10 0 60310 27000.00000 0 -9600542.011 19839680.444 -12854710.652 10 0 60310 27900.00000 0 -10356094.086 21049429.643 -10039420.942 10 0 60310 28800.00000 0 -10811653.806 22020329.739 -7029308.340 10 0 60310 29700.00000 0 -10995187.548 22700159.479 -3882806.292 10 0 60310 30600.00000 0 -10945063.956 23045459.178 -660976.258 10 0 60310 31500.00000 0 -10708194.763 23023429.660 2573675.536 10 0 60310 32400.00000 0 -10337825.644 22613402.493 5758408.299 10 0 60310 33300.00000 0 -9891070.977 21807819.790 8831460.348 10 0 60310 34200.00000 0 -9426296.903 20612682.343 11733242.801 10 0 60310 35100.00000 0 -9000463.323 19047447.086 14407490.319 10 0 60310 36000.00000 0 -8666536.927 17144377.731 16802346.942 10 0 60310 36900.00000 0 -8471084.255 14947375.209 18871366.414 10 0 60310 37800.00000 0 -8452146.108 12510335.973 20574408.135 10 0 60310 38700.00000 0 -8637482.742 9895105.683 21878412.038 10 0 60310 39600.00000 0 -9043263.848 7169112.446 22758037.866 10 0 60310 40500.00000 0 -9673258.716 4402776.880 23196156.969 10 0 60310 41400.00000 0 -10518561.293 1666805.384 23184187.303 10 0 60310 42300.00000 0 -11557862.605 -970522.096 22722265.168 10 0 60310 43200.00000 0 -12758260.291 -3445958.299 21819250.031 10 0 60310 44100.00000 0 -14076572.650 -5703681.584 20492561.776 10 0 60310 45000.00000 0 -15461103.425 -7697376.839 18767852.704 10 0 60310 45900.00000 0 -16853784.552 -9391918.368 16678519.667 10 0 60310 46800.00000 0 -18192607.988 -10764585.035 14265064.739 10 0 60310 47700.00000 0 -19414245.096 -11805757.241 11574315.864 10 0 60310 48600.00000 0 -20456743.770 -12519066.803 8658521.839 10 0 60310 49500.00000 0 -21262189.646 -12920993.772 5574338.664 10 0 60310 50400.00000 0 -21779218.685 -13039927.479 2381726.839 10 0 60310 51300.00000 0 -21965274.389 -12914731.909 -857218.726 10 0 60310 52200.00000 0 -21788513.267 -12592876.617 -4079482.933 10 0 60310 53100.00000 0 -21229276.970 -12128213.051 -7222364.312 10 0 60310 54000.00000 0 -20281067.784 -11578491.344 -10224703.466 10 0 60310 54900.00000 0 -18950985.287 -11002723.776 -13028081.225 10 0 60310 55800.00000 0 -17259604.897 -10458507.628 -15577962.172 10 0 60310 56700.00000 0 -15240302.797 -9999421.729 -17824760.594 10 0 60310 57600.00000 0 -12938055.181 -9672607.721 -19724807.630 10 0 60310 58500.00000 0 -10407761.998 -9516638.894 -21241200.609 10 0 60310 59400.00000 0 -7712165.261 -9559767.022 -22344518.244 10 0 60310 60300.00000 0 -4919448.858 -9818621.318 -23013388.150 10 0 60310 61200.00000 0 -2100619.934 -10297414.298 -23234896.245 10 0 60310 62100.00000 0 673219.315 -10987687.836 -23004830.754 10 0 60310 63000.00000 0 3333596.306 -11868609.801 -22327756.766 10 0 60310 63900.00000 0 5817276.516 -12907808.556 -21216920.463 10 0 60310 64800.00000 0 8068648.125 -14062709.991 -19693985.408 10 0 60310 65700.00000 0 10041784.869 -15282320.731 -17788606.298 10 0 60310 66600.00000 0 11702102.532 -16509382.526 -15537848.678 10 0 60310 67500.00000 0 13027541.630 -17682807.254 -12985465.950 10 0 60310 68400.00000 0 14009228.599 -18740290.280 -10181047.679 10 0 60310 69300.00000 0 14651589.491 -19620992.351 -7179055.754 10 0 60310 70200.00000 0 14971913.126 -20268177.382 -4037767.022 10 0 60310 71100.00000 0 14999383.555 -20631695.248 -818142.938 10 0 60310 72000.00000 0 14773623.827 -20670205.209 2417351.816 10 0 60310 72900.00000 0 14342813.466 -20353046.438 5605958.803 10 0 60310 73800.00000 0 13761459.749 -19661676.908 8685839.954 10 0 60310 74700.00000 0 13087917.299 -18590619.972 11597272.842 10 0 60310 75600.00000 0 12381760.761 -17147878.554 14283804.121 10 0 60310 76500.00000 0 11701121.394 -15354799.035 16693339.104 10 0 60310 77400.00000 0 11100099.612 -13245389.846 18779146.769 10 0 60310 78300.00000 0 10626362.217 -10865122.328 20500761.251 10 0 60310 79200.00000 0 10319025.142 -8269262.823 21824762.991 10 0 60310 80100.00000 0 10206910.591 -5520804.256 22725424.904 10 0 60310 81000.00000 0 10307251.769 -2688081.939 23185211.548 10 0 60310 81900.00000 0 10624899.817 157828.705 23195121.865 10 0 60310 82800.00000 0 11152066.724 2945825.741 22754868.871 10 0 60310 83700.00000 0 11868615.716 5607494.256 21872892.542 10 0 60310 84600.00000 0 12742887.895 8079708.233 20566205.060 10 0 60310 85500.00000 0 13733031.462 10307013.537 18860070.652 10 0 60311 0.00000 0 14788778.668 12243693.407 16787525.415 10 0 60311 900.00000 0 15853597.335 13855431.864 14388744.241 10 0 60311 1800.00000 0 16867125.709 15120503.385 11710269.020 10 0 60311 2700.00000 0 17767790.385 16030442.723 8804108.588 10 0 60311 3600.00000 0 18495495.543 16590164.349 5726730.079 10 0 60311 4500.00000 0 18994270.188 16817527.771 2537960.080 10 0 60311 5400.00000 0 19214760.756 16742367.228 -700182.688 10 0 60311 6300.00000 0 19116462.752 16405027.137 -3924699.944 10 0 60311 7200.00000 0 18669595.889 15854465.866 -7072847.214 10 0 60311 8100.00000 0 17856542.220 15146008.796 -10083363.054 10 0 60311 9000.00000 0 16672785.301 14338846.696 -12897669.172 10 0 60311 9900.00000 0 15127309.624 13493386.242 -15461017.107 10 0 60311 10800.00000 0 13242442.605 12668565.680 -17723558.417 10 0 60311 11700.00000 0 11053145.014 11919249.940 -19641317.067 10 0 60311 12600.00000 0 8605779.153 11293815.852 -21177044.883 10 0 60311 13500.00000 0 5956406.039 10832029.719 -22300943.590 10 0 60311 14400.00000 0 3168682.529 10563306.809 -22991239.765 10 0 60311 15300.00000 0 311445.962 10505425.900 -23234602.095 10 0 60311 16200.00000 0 -2543913.300 10663752.575 -23026393.523 10 0 60311 17100.00000 0 -5326182.467 11031003.405 -22370754.059 10 0 60311 18000.00000 0 -7967047.010 11587560.293 -21280513.259 10 0 60311 18900.00000 0 -10403689.087 12302321.172 -19776934.579 10 0 60311 19800.00000 0 -12581156.646 13134050.736 -17889296.891 10 0 60311 20700.00000 0 -14454405.730 14033173.965 -15654321.501 10 0 60311 21600.00000 0 -15989932.314 14943936.689 -13115455.844 10 0 60311 22500.00000 0 -17166927.056 15806842.061 -10322027.761 10 0 60311 23400.00000 0 -17977906.242 16561260.261 -7328286.719 10 0 60311 24300.00000 0 -18428794.075 17148101.469 -4192350.573 10 0 60311 25200.00000 0 -18538454.350 17512439.510 -975078.235 10 0 60311 26100.00000 0 -18337692.453 17605975.588 2261109.789 10 0 60311 27000.00000 0 -17867770.843 17389238.266 5453440.122 10 0 60311 27900.00000 0 -17178501.312 16833426.928 8540001.056 10 0 60311 28800.00000 0 -16325995.016 15921820.879 11460939.388 10 0 60311 29700.00000 0 -15370165.331 14650694.468 14159616.508 10 0 60311 30600.00000 0 -14372088.794 13029699.219 16583701.666 10 0 60311 31500.00000 0 -13391335.041 11081696.189 18686181.606 10 0 60311 32400.00000 0 -12483377.771 8842044.573 20426267.539 10 0 60311 33300.00000 0 -11697195.151 6357375.084 21770182.503 10 0 60311 34200.00000 0 -11073160.051 3683897.908 22691814.371 10 0 60311 35100.00000 0 -10641308.355 885314.215 23173222.349 10 0 60311 36000.00000 0 -10420057.808 -1969583.474 23204987.416 10 0 60311 36900.00000 0 -10415431.182 -4809523.858 22786399.940 10 0 60311 37800.00000 0 -10620816.607 -7563475.273 21925480.591 10 0 60311 38700.00000 0 -11017275.600 -10163358.330 20638833.590 10 0 60311 39600.00000 0 -11574386.517 -12546641.052 18951334.348 10 0 60311 40500.00000 0 -12251588.760 -14658709.339 16895656.605 10 0 60311 41400.00000 0 -12999971.914 -16454914.581 14511647.188 10 0 60311 42300.00000 0 -13764435.130 -17902213.235 11845559.559 10 0 60311 43200.00000 0 -14486126.093 -18980329.982 8949160.226 10 0 60311 44100.00000 0 -15105056.746 -19682395.784 5878724.815 10 0 60311 45000.00000 0 -15562784.977 -20015034.072 2693943.129 10 0 60311 45900.00000 0 -15805048.263 -19997891.603 -543245.323 10 0 60311 46800.00000 0 -15784236.935 -19662633.996 -3769862.216 10 0 60311 47700.00000 0 -15461601.232 -19051448.798 -6923123.292 10 0 60311 48600.00000 0 -14809097.475 -18215119.962 -9941668.310 10 0 60311 49500.00000 0 -13810793.960 -17210755.877 -12766763.081 10 0 60311 50400.00000 0 -12463775.951 -16099267.884 -15343449.236 10 0 60311 51300.00000 0 -10778510.435 -14942706.708 -17621618.553 10 0 60311 52200.00000 0 -8778654.343 -13801570.070 -19556990.495 10 0 60311 53100.00000 0 -6500313.549 -12732195.715 -21111973.675 10 0 60311 54000.00000 0 -3990783.147 -11784350.092 -22256394.646 10 0 60311 54900.00000 0 -1306821.260 -10999114.293 -22968080.237 10 0 60311 55800.00000 0 1487471.846 -10407155.939 -23233282.643 10 0 60311 56700.00000 0 4323081.246 -10027459.148 -23046939.725 10 0 60311 57600.00000 0 7128710.778 -9866565.171 -22412766.116 10 0 60311 58500.00000 0 9833513.264 -9918354.705 -21343173.998 10 0 60311 59400.00000 0 12369804.646 -10164380.069 -19859025.568 10 0 60311 60300.00000 0 14675649.947 -10574732.332 -17989222.349 10 0 60311 61200.00000 0 16697214.358 -11109406.105 -15770139.510 10 0 60311 62100.00000 0 18390782.680 -11720103.867 -13244916.268 10 0 60311 63000.00000 0 19724364.139 -12352403.303 -10462616.109 10 0 60311 63900.00000 0 20678816.855 -12948195.975 -7477273.131 10 0 60311 64800.00000 0 21248446.307 -13448294.239 -4346842.944 10 0 60311 65700.00000 0 21441054.062 -13795096.316 -1132078.471 10 0 60311 66600.00000 0 21277435.936 -13935196.976 2104647.500 10 0 60311 67500.00000 0 20790351.789 -13821833.603 5300550.163 10 0 60311 68400.00000 0 20023011.119 -13417064.353 8393647.524 10 0 60311 69300.00000 0 19027138.799 -12693586.360 11323958.676 10 0 60311 70200.00000 0 17860702.724 -11636117.088 14034662.465 10 0 60311 71100.00000 0 16585399.028 -10242280.171 16473194.383 10 0 60311 72000.00000 0 15264000.492 -8522957.785 18592260.801 10 0 60311 72900.00000 0 13957679.188 -6502093.813 20350751.422 10 0 60311 73800.00000 0 12723415.282 -4215954.771 21714532.869 10 0 60311 74700.00000 0 11611600.137 -1711877.976 22657108.549 10 0 60311 75600.00000 0 10663933.646 953442.438 23160132.495 10 0 60311 76500.00000 0 9911703.390 3716061.976 23213767.534 10 0 60311 77400.00000 0 9374517.421 6507198.730 22816880.851 10 0 60311 78300.00000 0 9059543.561 9255854.135 21977072.960 10 0 60311 79200.00000 0 8961287.184 11891534.012 20710538.963 10 0 60311 80100.00000 0 9061917.027 14346957.948 19041764.043 10 0 60311 81000.00000 0 9332125.713 16560645.172 17003058.136 10 0 60311 81900.00000 0 9732489.272 18479269.798 14633937.760 10 0 60311 82800.00000 0 10215268.807 20059687.462 11980366.056 10 0 60311 83700.00000 0 10726578.608 21270548.697 9093864.952 10 0 60311 84600.00000 0 11208829.283 22093431.435 6030516.130 10 0 60311 85500.00000 0 11603342.353 22523444.933 2849870.049 10 0 60312 0.00000 0 11853025.169 22569279.651 -386215.370 10 0 60312 900.00000 0 11904992.146 22252700.978 -3614785.029 10 0 60312 1800.00000 0 11713019.911 21607508.330 -6773017.245 10 0 60312 2700.00000 0 11239731.593 20678004.044 -9799455.492 10 0 60312 3600.00000 0 10458416.067 19517037.133 -12635212.021 10 0 60312 4500.00000 0 9354404.042 18183705.311 -15225120.648 10 0 60312 5400.00000 0 7925941.624 16740813.043 -17518815.236 10 0 60312 6300.00000 0 6184523.375 15252193.577 -19471712.366 10 0 60312 7200.00000 0 4154669.953 13780008.427 -21045878.837 10 0 60312 8100.00000 0 1873158.892 12382138.384 -22210767.240 10 0 60312 9000.00000 0 -612259.853 11109775.840 -22943805.660 10 0 60312 9900.00000 0 -3244610.348 10005319.359 -23230830.584 10 0 60312 10800.00000 0 -5959826.631 9100658.297 -23066355.305 10 0 60312 11700.00000 0 -8689189.557 8415918.586 -22453669.273 10 0 60312 12600.00000 0 -11361963.491 7958721.183 -21404767.099 10 0 60312 13500.00000 0 -13908123.645 7723983.112 -19940109.108 10 0 60312 14400.00000 0 -16261061.226 7694268.108 -18088218.428 10 0 60312 15300.00000 0 -18360154.532 7840670.971 -15885122.657 10 0 60312 16200.00000 0 -20153099.752 8124197.298 -13373651.012 10 0 60312 17100.00000 0 -21597905.332 8497579.607 -10602600.597 10 0 60312 18000.00000 0 -22664467.603 8907452.606 -7625787.906 10 0 60312 18900.00000 0 -23335662.994 9296795.329 -4501003.947 10 0 60312 19800.00000 0 -23607912.154 9607536.708 -1288893.202 10 0 60312 20700.00000 0 -23491193.425 9783214.329 1948221.782 10 0 60312 21600.00000 0 -23008506.047 9771573.919 5147547.350 10 0 60312 22500.00000 0 -22194806.452 9526999.661 8247033.846 10 0 60312 23400.00000 0 -21095462.953 9012672.577 11186575.316 10 0 60312 24300.00000 0 -19764294.141 8202365.689 13909170.698 10 0 60312 25200.00000 0 -18261273.518 7081799.873 16362024.291 10 0 60312 26100.00000 0 -16649996.644 5649502.764 18497564.515 10 0 60312 27000.00000 0 -14995016.711 3917133.725 20274361.777 10 0 60312 27900.00000 0 -13359159.719 1909260.115 21657928.203 10 0 60312 28800.00000 0 -11800931.060 -337407.158 22621384.314 10 0 60312 29700.00000 0 -10372121.353 -2775288.489 23145980.181 10 0 60312 30600.00000 0 -9115710.959 -5347669.370 23221461.287 10 0 60312 31500.00000 0 -8064160.244 -7990822.696 22846272.055 10 0 60312 32400.00000 0 -7238156.593 -10636432.949 22027592.857 10 0 60312 33300.00000 0 -6645870.306 -13214222.989 20781209.317 10 0 60312 34200.00000 0 -6282750.406 -15654675.441 19131215.652 10 0 60312 35100.00000 0 -6131868.941 -17891736.389 17109556.888 10 0 60312 36000.00000 0 -6164799.421 -19865389.396 14755417.791 10 0 60312 36900.00000 0 -6342992.595 -21523992.706 12114469.417 10 0 60312 37800.00000 0 -6619591.691 -22826282.007 9237987.078 10 0 60312 38700.00000 0 -6941610.465 -23742954.681 6181856.261 10 0 60312 39600.00000 0 -7252381.740 -24257768.751 3005485.633 10 0 60312 40500.00000 0 -7494172.329 -24368110.007 -229351.639 10 0 60312 41400.00000 0 -7610852.812 -24085003.185 -3459725.239 10 0 60312 42300.00000 0 -7550508.013 -23432566.571 -6622779.446 10 0 60312 43200.00000 0 -7267876.360 -22446933.175 -9656964.352 10 0 60312 44100.00000 0 -6726513.470 -21174684.240 -12503241.590 10 0 60312 45000.00000 0 -5900587.046 -19670861.691 -15106240.100 10 0 60312 45900.00000 0 -4776225.905 -17996643.946 -17415338.667 10 0 60312 46800.00000 0 -3352365.031 -16216783.636 -19385653.646 10 0 60312 47700.00000 0 -1641049.999 -14396915.682 -20978912.399 10 0 60312 48600.00000 0 332812.864 -12600849.310 -22164195.559 10 0 60312 49500.00000 0 2532250.827 -10887957.805 -22918534.043 10 0 60312 50400.00000 0 4909530.894 -9310775.384 -23227349.753 10 0 60312 51300.00000 0 7407923.625 -7912901.316 -23084732.075 10 0 60312 52200.00000 0 9963851.451 -6727298.227 -22493545.498 10 0 60312 53100.00000 0 12509332.312 -5775054.702 -21465366.883 10 0 60312 54000.00000 0 14974617.277 -5064662.618 -20020254.110 10 0 60312 54900.00000 0 17290912.784 -4591838.005 -18186350.960 10 0 60312 55800.00000 0 19393074.661 -4339891.421 -15999336.106 10 0 60312 56700.00000 0 21222162.318 -4280630.826 -13501726.997 10 0 60312 57600.00000 0 22727747.289 -4375757.690 -10742052.131 10 0 60312 58500.00000 0 23869880.532 -4578696.460 -7773907.752 10 0 60312 59400.00000 0 24620637.085 -4836779.377 -4654917.229 10 0 60312 60300.00000 0 24965174.299 -5093693.812 -1445613.254 10 0 60312 61200.00000 0 24902260.142 -5292088.314 1791735.409 10 0 60312 62100.00000 0 24444250.184 -5376226.990 4994329.863 10 0 60312 63000.00000 0 23616514.921 -5294579.845 8100056.318 10 0 60312 63900.00000 0 22456341.940 -5002239.512 11048687.099 10 0 60312 64800.00000 0 21011359.367 -4463062.149 13783044.266 10 0 60312 65700.00000 0 19337546.796 -3651441.891 16250103.586 10 0 60312 66600.00000 0 17496917.017 -2553643.633 18402017.797 10 0 60312 67500.00000 0 15554965.287 -1168637.397 20197039.858 10 0 60312 68400.00000 0 13577992.386 491601.758 21600328.850 10 0 60312 69300.00000 0 11630412.682 2402342.060 22584623.449 10 0 60312 70200.00000 0 9772158.928 4526882.694 23130770.410 10 0 60312 71100.00000 0 8056291.280 6817849.585 23228098.128 10 0 60312 72000.00000 0 6526909.610 9218946.988 22874628.108 10 0 60312 72900.00000 0 5217455.539 11667093.638 22077120.043 10 0 60312 73800.00000 0 4149474.509 14094856.157 20850949.145 10 0 60312 74700.00000 0 3331889.274 16433079.723 19219817.371 10 0 60312 75600.00000 0 2760814.887 18613607.546 17215303.209 10 0 60312 76500.00000 0 2419922.794 20571976.482 14876257.752 10 0 60312 77400.00000 0 2281338.632 22249976.595 12248057.791 10 0 60312 78300.00000 0 2307035.846 23597967.683 9381729.610 10 0 60312 79200.00000 0 2450666.181 24576855.474 6332959.893 10 0 60312 80100.00000 0 2659749.415 25159644.116 3161012.743 10 0 60312 81000.00000 0 2878129.195 25332499.162 -72426.011 10 0 60312 81900.00000 0 3048590.233 25095275.798 -3304454.334 10 0 60312 82800.00000 0 3115525.004 24461489.623 -6472185.057 10 0 60312 83700.00000 0 3027535.774 23457730.994 -9513977.645 10 0 60312 84600.00000 0 2739860.421 22122547.587 -12370645.672 10 0 60312 85500.00000 0 2216518.006 20504842.509 -14986615.516 10 0 60313 0.00000 0 1432082.116 18661855.973 -17311012.736 10 0 60313 900.00000 0 373005.403 16656814.958 -19298655.658 10 0 60313 1800.00000 0 -961560.492 14556352.674 -20910933.500 10 0 60313 2700.00000 0 -2559486.432 12427803.267 -22116556.207 10 0 60313 3600.00000 0 -4395940.137 10336487.815 -22892158.556 10 0 60313 4500.00000 0 -6434202.842 8343104.258 -23222748.620 10 0 60313 5400.00000 0 -8626994.475 6501330.176 -23101992.336 10 0 60313 6300.00000 0 -10918252.379 4855737.858 -22532329.337 10 0 60313 7200.00000 0 -13245289.647 3440107.725 -21524918.430 10 0 60313 8100.00000 0 -15541243.374 2276209.204 -20099414.327 10 0 60313 9000.00000 0 -17737711.157 1373098.427 -18283580.301 10 0 60313 9900.00000 0 -19767466.262 726960.508 -16112744.541 10 0 60313 10800.00000 0 -21567138.682 321501.270 -13629110.829 10 0 60313 11700.00000 0 -23079750.696 128870.374 -10880936.893 10 0 60313 12600.00000 0 -24257001.530 111075.620 -7921596.369 10 0 60313 13500.00000 0 -25061206.179 221827.640 -4808542.481 10 0 60313 14400.00000 0 -25466807.841 408736.258 -1602193.532 10 0 60313 15300.00000 0 -25461401.151 615765.086 1635238.175 10 0 60313 16200.00000 0 -25046223.899 785840.211 4840951.225 10 0 60313 17100.00000 0 -24236097.038 863502.398 7952770.472 10 0 60313 18000.00000 0 -23058815.873 797490.583 10910349.287 10 0 60313 18900.00000 0 -21554018.129 543147.323 13656335.578 10 0 60313 19800.00000 0 -19771576.384 64544.556 16137479.185 10 0 60313 20700.00000 0 -17769581.990 -663760.312 18305659.564 10 0 60313 21600.00000 0 -15612004.469 -1655412.377 20118814.347 10 0 60313 22500.00000 0 -13366123.612 -2911447.168 21541751.324 10 0 60313 23400.00000 0 -11099840.781 -4420013.598 22546828.687 10 0 60313 24300.00000 0 -8878980.722 -6156644.805 23114490.795 10 0 60313 25200.00000 0 -6764695.419 -8085067.057 23233649.451 10 0 60313 26100.00000 0 -4811077.292 -10158514.553 22901903.329 10 0 60313 27000.00000 0 -3063080.332 -12321496.942 22125591.149 10 0 60313 27900.00000 0 -1554835.054 -14511947.505 20919677.085 10 0 60313 28800.00000 0 -308426.997 -16663663.847 19307469.882 10 0 60313 29700.00000 0 666810.718 -18708940.492 17320180.253 10 0 60313 30600.00000 0 1374461.538 -20581284.350 14996324.093 10 0 60313 31500.00000 0 1830639.717 -22218099.995 12380982.143 10 0 60313 32400.00000 0 2063071.161 -23563232.487 9524929.644 10 0 60313 33300.00000 0 2109679.841 -24569260.904 6483652.258 10 0 60313 34200.00000 0 2016739.831 -25199445.737 3316267.156 10 0 60313 35100.00000 0 1836671.596 -25429247.620 84370.338 10 0 60313 36000.00000 0 1625576.532 -25247352.691 -3149167.012 10 0 60313 36900.00000 0 1440615.081 -24656160.659 -6321428.909 10 0 60313 37800.00000 0 1337340.652 -23671714.472 -9370686.856 10 0 60313 38700.00000 0 1367103.517 -22323074.131 -12237609.045 10 0 60313 39600.00000 0 1574635.941 -20651160.962 -14866421.934 10 0 60313 40500.00000 0 1995921.968 -18707121.064 -17206000.794 10 0 60313 41400.00000 0 2656443.120 -16550277.018 -19210867.457 10 0 60313 42300.00000 0 3569875.015 -14245754.255 -20842075.573 10 0 60313 43200.00000 0 4737290.734 -11861881.942 -22067966.208 10 0 60313 44100.00000 0 6146905.104 -9467477.431 -22864779.431 10 0 60313 45000.00000 0 7774371.152 -7129127.845 -23217110.525 10 0 60313 45900.00000 0 9583616.706 -4908582.036 -23118202.616 10 0 60313 46800.00000 0 11528186.427 -2860361.131 -22570070.739 10 0 60313 47700.00000 0 13553033.395 -1029686.402 -21583455.563 10 0 60313 48600.00000 0 15596685.632 549190.378 -20177608.202 10 0 60313 49500.00000 0 17593697.330 1854185.966 -18379910.668 10 0 60313 50400.00000 0 19477282.657 2876065.659 -16225339.566 10 0 60313 51300.00000 0 21182022.439 3618577.651 -13755783.532 10 0 60313 52200.00000 0 22646530.917 4098037.912 -11019227.653 10 0 60313 53100.00000 0 23815971.421 4342384.656 -8068820.674 10 0 60313 54000.00000 0 24644316.021 4389743.676 -4961843.028 10 0 60313 54900.00000 0 25096254.934 4286566.183 -1758595.662 10 0 60313 55800.00000 0 25148675.962 4085418.660 1478768.768 10 0 60313 56700.00000 0 24791652.304 3842518.724 4687449.631 10 0 60313 57600.00000 0 24028897.508 3615121.559 7805213.700 10 0 60313 58500.00000 0 22877668.681 3458867.580 10771598.570 10 0 60313 59400.00000 0 21368121.994 3425203.565 13529080.957 10 0 60313 60300.00000 0 19542147.374 3558986.183 16024187.476 10 0 60313 61200.00000 0 17451730.825 3896369.176 18208526.708 10 0 60313 62100.00000 0 15156912.377 4463063.441 20039723.036 10 0 60313 63000.00000 0 12723424.236 5273043.677 21482234.723 10 0 60313 63900.00000 0 10220106.865 6327756.603 22508040.881 10 0 60313 64800.00000 0 7716209.689 7615864.903 23097184.540 10 0 60313 65700.00000 0 5278687.812 9113538.844 23238161.583 10 0 60313 66600.00000 0 2969606.213 10785284.743 22928148.117 10 0 60313 67500.00000 0 843758.463 12585277.189 22173061.728 10 0 60313 68400.00000 0 -1053401.843 14459140.940 20987454.930 10 0 60313 69300.00000 0 -2687431.477 16346109.481 19394242.211 10 0 60313 70200.00000 0 -4036100.811 18181471.348 17424265.049 10 0 60313 71100.00000 0 -5090080.077 19899202.874 15115702.320 10 0 60313 72000.00000 0 -5853080.372 21434677.768 12513336.592 10 0 60313 72900.00000 0 -6341443.816 22727340.168 9667689.677 10 0 60313 73800.00000 0 -6583200.482 23723228.825 6634043.634 10 0 60313 74700.00000 0 -6616632.239 24377245.824 3471365.960 10 0 60313 75600.00000 0 -6488404.702 24655073.604 241159.965 10 0 60313 76500.00000 0 -6251346.925 24534658.642 -2993736.939 10 0 60313 77400.00000 0 -5961973.750 24007198.303 -6170382.871 10 0 60313 78300.00000 0 -5677856.730 23077588.419 -9226964.226 10 0 60313 79200.00000 0 -5454956.188 21764312.001 -12104006.520 10 0 60313 80100.00000 0 -5345028.615 20098773.309 -14745538.795 10 0 60313 81000.00000 0 -5393220.327 18124105.089 -17100188.091 10 0 60313 81900.00000 0 -5635950.236 15893499.041 -19122182.160 10 0 60313 82800.00000 0 -6099172.114 13468129.766 -20772240.572 10 0 60313 83700.00000 0 -6797090.389 10914759.346 -22018336.958 10 0 60313 84600.00000 0 -7731384.142 8303122.950 -22836317.854 10 0 60313 85500.00000 0 -8890972.310 5703204.699 -23210366.632 99